MDT,Max TemperatureF,Mean TemperatureF,Min TemperatureF,Max Dew PointF,MeanDew PointF,Min DewpointF,Max Humidity, Mean Humidity, Min Humidity, Max Sea Level PressureIn, Mean Sea Level PressureIn, Min Sea Level PressureIn, Max VisibilityMiles, Mean VisibilityMiles, Min VisibilityMiles, Max Wind SpeedMPH, Mean Wind SpeedMPH, Max Gust SpeedMPH,PrecipitationIn, CloudCover, Events, WindDirDegrees
2013-7-1,88,76,64,55,51,46,73,49,25,30.18,30.03,29.91,10,10,10,33,16,43,0.01,3,Rain-Thunderstorm,92
2013-7-2,88,76,64,54,47,42,57,40,23,30.18,30.01,29.84,10,10,10,31,8,37,T,4,Rain,106
2013-7-3,87,72,56,57,51,44,84,55,25,30.28,29.95,29.75,10,10,2,30,8,37,0.13,5,Rain-Thunderstorm,138
2013-7-4,90,78,65,56,51,43,73,46,19,30.07,29.80,29.70,10,10,10,35,8,43,T,5,Rain-Thunderstorm,163
2013-7-5,94,82,69,63,53,46,78,50,22,30.03,29.80,29.65,10,10,10,32,7,47,0.32,6,Rain-Thunderstorm,163
2013-7-6,94,80,65,61,54,41,81,50,18,30.06,29.81,29.67,10,10,8,28,9,35,0.09,6,Rain-Thunderstorm,336
2013-7-7,94,81,67,59,54,45,73,47,20,30.10,29.84,29.74,10,10,9,20,7,23,T,6,Rain,358
2013-7-8,96,81,66,61,54,49,73,48,23,30.30,29.97,29.84,10,10,2,30,9,36,0.44,6,Rain-Thunderstorm,108
2013-7-9,94,81,68,61,55,48,76,50,23,30.17,29.99,29.86,10,10,6,35,8,41,0.00,5,Rain-Thunderstorm,91
2013-7-10,94,84,73,59,52,47,53,37,21,30.20,29.92,29.81,10,10,10,25,7,30,T,5,Rain-Thunderstorm,83
2013-7-11,88,78,68,61,56,49,73,52,31,30.21,29.92,29.81,10,10,10,23,10,28,T,5,Rain-Thunderstorm,168
2013-7-12,92,82,71,59,53,46,61,43,24,30.11,29.90,29.78,10,10,7,26,8,36,T,4,Thunderstorm,255
2013-7-13,95,82,68,60,54,46,73,47,21,30.20,29.92,29.80,10,10,10,29,7,35,0.02,5,Rain-Thunderstorm,101
2013-7-14,97,82,66,63,54,46,61,41,20,30.19,29.90,29.69,10,10,3,45,8,54,0.08,6,Rain-Thunderstorm,37
2013-7-15,76,71,66,63,55,49,76,60,44,30.03,29.96,29.86,10,10,10,36,15,40,T,6,Rain,92
2013-7-16,81,71,60,51,48,45,67,48,28,30.11,30.03,29.96,10,10,10,35,11,40,0.03,6,,113
2013-7-17,81,71,60,56,51,46,78,54,30,30.20,30.13,30.05,10,10,10,22,13,28,0.05,5,Rain,107
2013-7-18,84,74,64,54,52,50,67,51,34,30.13,30.04,29.93,10,10,10,17,7,23,0.00,3,,167
2013-7-19,88,77,66,63,58,55,73,54,35,30.10,29.95,29.83,10,10,3,41,6,55,0.20,4,Rain-Thunderstorm,169
2013-7-20,86,77,67,60,57,51,76,54,32,30.11,29.88,29.75,10,10,10,23,8,30,T,6,Rain-Thunderstorm,130
2013-7-21,90,79,68,59,54,45,73,48,22,30.11,29.85,29.74,10,10,10,23,6,29,0.00,6,Rain-Thunderstorm,160
2013-7-22,94,82,69,58,51,43,61,39,17,29.90,29.82,29.73,10,10,10,16,5,18,0.00,5,,173
2013-7-23,96,83,70,54,49,42,53,36,19,29.88,29.82,29.73,10,10,10,23,6,29,0.00,4,,159
2013-7-24,90,79,67,58,53,49,68,51,34,30.15,29.93,29.83,10,10,5,40,9,48,T,7,Rain-Thunderstorm,111
2013-7-25,85,75,65,59,57,55,84,62,40,30.29,30.03,29.89,10,10,10,23,8,29,0.01,6,Rain-Thunderstorm,174
2013-7-26,88,75,61,61,58,54,87,59,31,30.36,30.13,29.96,10,9,2,64,10,89,1.36,6,Rain-Thunderstorm,27
2013-7-27,83,73,63,60,56,53,84,62,39,30.16,30.01,29.88,10,10,10,17,7,25,0.00,5,,193
2013-7-28,87,77,66,61,57,50,81,55,28,30.07,29.87,29.73,10,10,10,26,7,33,0.02,6,Rain-Thunderstorm,211
2013-7-29,92,78,64,62,52,43,87,53,19,29.97,29.90,29.86,10,10,9,23,7,32,0.01,3,Rain,291
2013-7-30,93,80,66,52,47,42,58,38,18,30.08,30.00,29.95,10,10,10,13,5,20,0.00,1,,196
2013-7-31,94,84,73,52,48,40,46,31,16,30.08,29.99,29.90,10,10,10,20,7,23,0.00,3,,225